Theta_e
315 313 312 313 313 317 317 317 316 316 315 315 314 314 315 315 315 314 315 317 317 316 316 314 314 313 313 312 311 310 308 304 309 312 311 311 310 310 310 309 307 306 306 306
312 313 313 314 314 315 317 316 315 316 312 313 314 315 315 314 314 314 315 314 316 316 315 314 313 313 313 312 310 309 305 303 310 313 311 313 311 310 310 309 307 306 306 307
314 315 314 315 315 315 315 315 315 316 315 313 313 313 317 320 314 314 313 314 314 316 314 313 313 313 312 311 310 308 303 305 311 313 311 313 312 311 310 309 307 307 308 309
313 313 314 315 315 314 315 314 315 318 315 314 313 315 309 314 316 314 313 313 313 314 313 313 313 313 312 311 310 306 303 307 312 313 312 314 312 310 310 309 308 309 311 314
313 313 312 314 314 313 314 313 315 315 314 314 313 309 313 317 319 317 311 313 313 312 313 313 313 313 311 310 309 304 302 309 312 313 312 314 312 311 310 308 309 312 315 316
310 310 311 312 310 312 311 312 312 312 311 309 310 312 313 315 320 314 312 312 313 313 312 312 312 311 310 309 307 303 303 309 312 313 312 314 312 311 310 310 312 314 315 316
311 311 309 310 311 310 312 311 311 312 309 313 313 313 314 315 314 311 311 312 313 312 311 311 311 310 309 309 305 303 305 310 312 313 312 314 312 311 311 313 313 316 315 317
310 310 309 308 311 311 311 312 313 316 320 318 310 312 313 311 311 311 313 313 312 311 311 311 311 310 309 308 303 303 305 309 312 313 312 313 314 313 313 313 314 315 315 315
311 312 309 309 309 310 311 312 311 311 304 309 309 310 311 310 310 310 311 311 311 311 311 311 310 309 308 306 303 303 305 308 311 312 313 312 314 313 315 315 315 315 316 317
312 313 309 308 309 309 310 309 311 307 309 314 313 311 314 314 311 308 309 309 311 310 310 310 309 308 307 305 303 303 304 308 310 312 313 313 312 313 313 314 315 315 315 316
309 312 309 308 308 310 309 309 309 310 311 317 317 315 311 313 312 310 307 311 311 310 310 309 309 308 307 305 303 303 303 306 310 311 312 313 313 313 313 313 316 317 315 316
311 313 309 308 308 307 308 308 309 311 313 310 313 312 308 308 308 309 309 310 312 311 310 309 309 308 307 306 304 304 303 305 309 311 311 311 313 313 313 313 314 314 315 316
312 311 314 314 310 307 308 308 309 309 308 312 313 314 308 308 307 308 308 310 311 311 311 310 309 308 308 307 306 304 304 304 307 310 311 311 312 313 313 313 313 314 314 316
310 311 313 313 312 308 308 308 308 310 309 310 313 314 312 309 308 307 309 310 311 311 312 311 310 309 308 307 307 305 304 304 305 308 310 312 312 312 313 313 313 314 315 314
309 308 309 310 310 309 308 308 307 309 310 311 312 311 311 308 306 306 307 309 310 311 311 311 311 310 309 308 307 306 304 304 304 306 308 311 312 312 313 314 312 313 313 315
305 310 308 306 310 309 310 308 308 308 309 309 309 309 301 301 303 303 302 303 304 308 310 310 310 310 310 309 309 308 307 305 304 304 306 309 312 312 313 313 311 311 312 314
307 308 308 311 308 310 312 310 310 309 305 304 309 304 299 299 300 300 298 300 301 300 304 306 307 309 309 309 309 308 307 305 304 304 304 306 309 311 312 312 312 311 312 313
305 308 309 312 308 313 308 299 305 304 298 297 298 297 296 296 297 296 294 296 295 296 299 302 304 306 307 307 308 307 307 306 305 304 304 304 307 309 311 311 311 311 311 312
301 306 310 312 309 311 307 298 299 302 296 294 295 295 294 295 299 298 294 293 293 294 295 297 300 302 304 306 306 306 306 306 305 304 303 304 304 307 309 310 310 310 311 311
303 303 308 311 312 310 298 295 295 297 297 293 293 293 293 294 299 294 291 292 293 294 294 295 297 299 301 302 303 304 305 305 305 304 304 303 303 305 307 309 310 311 310 310
297 303 305 307 310 298 295 294 297 304 296 292 292 292 292 293 292 291 291 292 293 293 294 294 295 295 296 297 299 302 302 301 301 301 301 302 303 303 306 307 309 309 311 310
297 296 297 297 300 301 293 293 294 293 292 291 291 291 291 291 291 290 291 291 292 292 293 294 295 294 294 295 296 297 298 299 300 300 300 301 302 302 304 306 307 308 309 309
291 292 294 295 296 293 292 292 291 291 290 290 291 290 290 289 289 289 289 290 291 291 292 292 293 294 294 294 294 295 295 296 298 298 299 299 300 301 302 304 306 307 308 308
288 292 290 292 295 292 291 291 290 289 289 289 288 287 287 286 287 286 286 286 287 289 290 291 292 293 293 294 293 293 293 295 295 297 297 298 299 299 301 303 304 306 308 309
287 289 288 289 292 293 292 290 288 288 288 287 286 285 284 284 284 283 283 283 283 284 287 289 291 292 292 293 293 294 293 294 295 296 296 297 298 298 299 301 303 305 306 308
288 287 286 286 290 290 290 287 286 286 285 285 284 284 283 281 281 281 281 282 282 282 284 286 288 290 292 293 293 293 294 293 293 295 295 295 296 296 297 298 300 302 304 304
Wind_Speed
6 4 8 11 9 4 3 3 4 4 2 4 7 14 18 20 21 19 25 28 29 29 25 25 26 25 23 19 15 11 8 9 8 5 5 7 9 10 8 9 10 4 6 8
2 8 8 9 6 7 5 4 5 5 2 4 5 17 21 17 15 17 19 12 17 28 27 29 28 25 22 16 13 9 7 7 6 4 5 8 11 12 11 10 9 6 9 9
6 4 5 9 5 5 4 5 4 7 4 4 6 8 6 5 4 5 5 4 0 20 34 33 30 25 20 16 13 8 6 5 3 3 3 7 8 6 5 8 9 12 14 15
7 10 1 4 4 6 4 4 6 3 3 3 3 6 7 9 9 5 10 8 7 10 30 33 30 24 18 16 13 9 5 3 2 1 3 3 6 9 8 7 10 16 17 14
8 3 6 4 4 8 6 2 4 3 2 3 3 3 9 6 8 5 8 12 11 12 24 30 27 21 17 16 13 9 5 4 3 2 4 3 5 10 7 10 15 15 13 12
5 2 1 5 3 1 7 4 5 4 2 1 6 6 6 4 4 2 2 11 12 13 18 25 22 19 18 17 14 10 6 5 5 4 5 5 7 10 11 13 16 14 12 13
2 3 1 3 5 6 2 5 2 4 2 5 1 4 11 5 7 7 8 14 14 14 20 25 24 22 21 19 15 10 7 6 6 6 8 8 8 11 12 13 15 15 12 12
7 4 9 6 6 7 7 7 5 7 4 3 3 6 7 6 1 5 11 14 14 17 22 24 23 22 22 19 15 11 8 7 8 7 9 11 9 12 15 12 10 11 10 10
6 4 1 3 1 6 6 6 5 3 2 3 5 7 9 2 2 2 8 14 17 19 23 24 22 23 22 19 15 11 9 8 9 10 10 12 13 13 16 15 14 12 13 10
3 2 1 0 0 1 3 2 2 2 2 4 5 4 6 6 6 7 8 15 19 21 23 23 23 23 21 18 15 13 10 9 9 13 11 12 14 13 15 16 16 13 13 14
3 2 2 2 6 8 3 3 4 3 5 5 1 5 5 3 1 7 9 19 21 23 24 23 23 22 21 19 18 15 12 11 10 14 14 14 15 15 15 16 18 13 14 16
2 2 4 8 3 2 1 6 6 4 4 4 3 6 5 4 5 5 7 16 19 20 22 22 22 23 23 22 20 17 14 12 12 12 15 16 16 16 16 18 18 15 16 17
5 3 3 2 4 2 5 5 4 2 3 6 4 4 2 2 6 7 6 7 16 19 21 22 23 25 25 23 21 19 17 14 13 13 14 18 19 19 19 19 19 19 17 18
4 4 5 6 3 3 4 6 12 12 4 3 12 3 4 9 10 10 9 6 6 14 18 20 22 24 24 24 23 22 19 17 15 15 14 17 21 21 21 21 21 21 22 20
1 3 3 10 1 1 5 6 9 17 18 8 5 7 5 13 13 18 25 13 3 6 12 18 21 23 24 25 25 24 23 21 19 18 18 17 19 21 23 23 23 22 22 24
1 2 2 4 8 7 11 8 7 11 12 14 14 16 12 17 23 28 29 27 29 21 17 18 20 22 24 25 27 26 27 26 24 22 20 18 20 22 22 25 24 24 25 25
2 2 1 4 3 6 5 13 16 6 9 5 10 7 16 11 13 22 29 28 28 32 24 20 18 22 22 22 24 28 29 27 27 26 24 22 22 22 24 23 25 25 25 23
3 3 2 1 2 4 3 8 3 12 11 11 9 13 15 14 17 15 30 30 32 32 27 22 18 12 14 20 22 21 24 27 29 30 29 27 26 25 24 24 26 28 27 26
11 3 2 3 4 3 3 7 5 4 7 11 11 13 18 25 9 7 37 30 29 28 26 22 17 14 10 10 14 19 19 22 27 32 32 31 30 27 27 27 25 25 27 29
9 10 3 3 3 4 4 10 7 4 3 11 13 14 19 23 5 6 30 27 27 27 27 26 20 15 13 11 13 15 17 21 24 26 30 32 32 30 29 28 26 25 26 26
3 1 7 8 5 4 8 13 6 5 3 5 9 12 13 7 6 14 21 25 27 30 30 27 23 22 19 17 11 11 12 16 20 25 26 28 31 31 29 28 28 27 26 26
3 3 2 3 2 2 17 5 5 2 3 5 7 9 9 10 13 17 21 24 27 29 31 31 29 27 23 21 16 11 11 14 18 22 24 26 27 28 30 29 29 29 29 30
1 1 1 2 2 5 8 14 12 4 2 5 7 9 10 12 14 18 22 25 27 28 28 28 29 29 27 24 22 19 16 14 16 21 23 22 22 24 28 30 30 31 33 33
5 1 1 2 3 8 12 8 4 2 2 5 7 12 11 13 16 19 22 24 24 27 28 28 27 28 29 27 24 23 22 20 17 17 19 21 20 21 24 29 31 33 34 35
5 1 2 4 1 6 8 2 3 6 6 7 10 13 13 16 18 18 22 24 24 25 26 27 28 28 27 26 25 25 24 24 21 18 16 17 19 19 22 27 32 35 35 36
4 4 3 3 3 1 2 5 11 7 6 12 18 19 17 16 15 19 21 23 25 27 27 27 27 28 27 25 24 25 24 24 24 23 19 16 18 20 22 24 29 35 37 38
Wind_Direction
208 143 204 201 205 209 123 177 231 275 219 249 239 275 282 282 278 273 266 261 251 232 225 211 212 218 225 231 239 245 274 304 324 339 34 41 37 50 27 25 353 8 87 103
95 237 218 211 209 217 247 241 266 279 173 235 275 286 287 283 270 263 268 252 253 232 201 197 205 214 224 228 227 237 267 303 321 354 43 47 44 44 28 29 24 84 108 118
172 238 202 201 190 175 190 192 205 220 320 280 307 294 320 304 279 235 215 223 118 203 186 190 196 208 217 221 220 229 257 296 299 21 56 63 53 46 60 41 77 101 107 110
224 250 306 158 186 150 214 214 197 171 54 246 44 286 298 283 289 235 227 213 188 167 186 190 193 204 214 213 214 222 247 268 239 62 102 99 45 71 67 77 104 112 111 112
232 203 162 172 206 165 225 104 122 135 169 5 312 76 273 301 295 273 218 211 204 194 196 192 196 206 211 208 209 217 235 230 208 166 126 105 74 96 98 110 122 119 113 114
181 140 142 169 60 86 146 75 42 45 92 359 236 155 282 245 229 243 190 198 200 193 192 196 199 206 209 203 207 213 225 209 196 177 148 125 110 113 130 122 130 126 120 120
144 196 133 150 90 7 101 90 332 349 354 223 168 108 244 251 259 215 201 200 201 198 188 191 198 204 203 203 205 210 216 203 189 182 164 150 143 133 139 134 133 136 135 145
160 276 164 190 190 177 183 163 172 206 204 256 46 225 249 232 261 224 217 197 193 194 192 198 205 204 200 202 204 210 213 205 191 184 180 163 157 152 151 154 155 152 152 170
170 240 125 89 84 147 196 203 183 111 45 62 231 277 300 150 171 116 157 177 191 193 194 200 203 201 201 204 207 213 215 210 199 194 192 177 170 167 164 165 169 172 163 162
223 127 6 334 95 73 149 193 104 360 202 251 271 266 236 251 242 210 202 199 198 199 202 202 201 202 204 208 211 216 217 217 208 202 200 196 182 185 181 183 173 172 169 166
198 54 325 89 212 171 166 217 234 150 168 193 259 258 225 259 254 226 216 212 208 204 208 204 203 205 209 212 216 218 220 220 215 205 208 208 203 191 197 189 191 185 182 177
101 80 191 210 270 207 276 209 180 153 218 222 164 269 355 357 9 344 235 224 219 218 216 215 211 210 214 217 219 219 220 221 216 214 209 214 214 205 199 194 200 189 190 185
144 189 133 280 340 353 220 203 225 117 72 214 158 258 292 11 4 329 314 295 231 221 218 220 219 219 222 223 224 224 225 225 221 220 218 212 218 215 202 201 202 200 197 193
181 193 216 192 168 131 193 218 209 206 195 172 231 294 263 33 13 335 324 337 217 219 221 227 231 233 233 233 233 231 230 232 231 225 228 222 217 220 216 207 209 209 209 205
128 238 264 257 216 277 209 226 217 214 220 200 272 223 264 29 21 7 16 355 286 242 237 242 248 246 243 240 238 237 236 237 240 236 232 230 219 221 221 218 211 213 216 218
175 231 201 265 223 206 256 263 233 236 244 262 273 277 35 21 14 14 9 5 360 332 297 268 262 262 259 254 249 245 242 239 241 244 242 233 229 229 227 224 221 219 221 218
219 237 179 263 314 137 257 240 228 203 65 341 253 330 348 5 357 18 5 8 7 9 8 360 303 288 294 283 272 261 254 247 244 247 247 242 237 235 234 229 225 223 223 219
279 194 205 283 7 230 126 18 328 102 54 27 359 358 350 330 306 46 21 12 6 3 0 4 3 342 300 285 285 278 262 254 252 252 250 247 243 238 236 236 234 229 225 223
220 277 228 248 197 305 40 22 10 25 61 21 12 5 353 333 308 120 9 5 2 359 358 355 354 345 319 292 274 267 271 263 257 256 254 252 249 242 239 237 237 232 224 222
209 219 255 200 246 235 25 326 306 288 100 17 12 8 2 5 54 358 359 6 3 3 2 1 356 347 328 309 289 277 269 272 270 270 266 260 253 248 244 243 241 237 226 227
342 225 225 239 260 72 322 320 312 177 85 9 9 5 1 15 354 327 350 3 7 9 8 5 7 4 356 346 329 289 265 264 272 276 276 267 257 251 248 246 242 238 231 227
345 341 358 326 332 198 340 57 62 71 71 356 339 341 337 334 337 342 347 349 353 357 1 6 6 6 1 352 346 336 294 270 260 260 263 265 260 253 248 245 241 236 231 230
3 125 291 347 357 117 64 126 135 91 308 305 314 322 319 320 326 330 333 338 340 342 349 354 358 359 1 358 353 344 334 312 281 266 260 258 261 254 247 243 240 235 232 230
345 228 282 337 161 194 148 134 113 15 293 286 307 327 322 317 323 323 322 326 327 328 332 339 344 348 352 355 350 345 338 329 319 292 273 259 253 257 249 242 240 238 235 232
225 2 229 283 183 115 135 153 351 330 300 300 311 323 321 316 317 317 316 319 319 318 320 324 328 332 337 342 345 340 337 332 325 319 298 272 256 251 253 247 243 240 239 239
217 218 149 233 199 205 204 294 308 301 298 316 320 319 319 319 317 317 320 322 322 325 329 323 318 315 317 323 332 335 334 332 330 322 318 301 271 256 250 248 246 244 242 240